sat.trackr.live / text

‹ back to catalog

STARLINK-3795

NORAD 52264 · 2022-041D

PAYLOAD ACTIVE UNKNOWN

§ Identity

Operator
Country
US
Launch date
2022-04-21
Launch site
AFETR
Launch vehicle
Mass (kg)
RCS (m²)

Purposes: comms

External: N2YO · Heavens-Above · Gunter

§ Orbital elements

Epoch: 2026-05-25T05:10:21.639936Z

Period
95.44 min
Inclination
53.2139°
Eccentricity
0.0001325
Mean motion
15.08839232 rev/d
Perigee alt
538.8 km
Apogee alt
540.7 km
Semi-major
6,917.9 km
B*
6.9277e-6
RAAN
125.5818°
Arg perigee
80.6825°
Mean anomaly
279.4317°
Rev number
22,591

§ Raw data

STARLINK-37951 52264U 22041D   26145.21552824 -.00000178  00000+0  69277-5 0  99972 52264  53.2139 125.5818 0001325  80.6825 279.4317 15.08839232225917

JSON: /api/v1/satellites/52264 · /tle

For live sub-satellite position, see the globe view (requires WebGL).

§ Visibility from observer

Set your observer location to see the next 7 days of passes ≥ 10°. The values pass through the URL so the page stays shareable.

No JS? Fill the form by hand. The geolocation button needs JavaScript.